EW0642 Weather Reports


Display with metric or nautical units.
time (UTC)temp
F
wind
direction
speed
MPH
gust
MPH
rain 1hr
in
rain 24hr
in
rain mn
in
humidity
%
barometer
mb
20260506141526 63 171 3.0 8.0 0.02 0.02 0.02 85 1010.2
20260506141005 64 173 2.0 7.0 0.01 0.01 0.01 84 1010.4
20260506140506 64 176 3.0 11.0 0.01 0.01 0.01 82 1010.3
20260506140006 64 184 4.0 11.0 0.01 0.01 0.01 81 1010.5
20260506135505 65 175 3.0 10.0 0.01 0.01 0.01 81 1010.5
20260506135026 65 173 4.0 13.0 0.00 0.00 0.00 80 1010.6
20260506134505 65 176 4.0 13.0 0.00 0.00 0.00 78 1010.7
20260506134026 65 180 3.0 12.0 0.00 0.00 0.00 78 1010.7
20260506133505 65 181 3.0 9.0 0.00 0.00 0.00 77 1010.5
20260506133026 65 175 3.0 12.0 0.00 0.00 0.00 78 1010.4
20260506132526 65 168 4.0 12.0 0.00 0.00 0.00 77 1010.3
20260506132027 66 169 3.0 12.0 0.00 0.00 0.00 77 1010.2
20260506131527 66 166 3.0 8.0 0.00 0.00 0.00 77 1010.2
20260506131026 66 168 3.0 9.0 0.00 0.00 0.00 76 1010.0
20260506130505 66 179 4.0 10.0 0.00 0.00 0.00 75 1010.0
20260506130006 66 177 4.0 15.0 0.00 0.00 0.00 75 1010.0
20260506125507 66 176 3.0 15.0 0.00 0.00 0.00 75 1010.0
20260506125005 66 169 3.0 12.0 0.00 0.00 0.00 76 1010.0
20260506124527 66 165 4.0 12.0 0.00 0.00 0.00 75 1010.1
20260506124028 66 161 3.0 9.0 0.00 0.00 0.00 76 1010.2
20260506123505 66 161 3.0 12.0 0.00 0.00 0.00 76 1010.2
20260506123005 66 167 4.0 12.0 0.00 0.00 0.00 76 1010.3
20260506122526 66 173 5.0 14.0 0.00 0.00 0.00 76 1010.4
20260506122005 66 177 4.0 14.0 0.00 0.00 0.00 76 1010.4
20260506121526 66 180 3.0 10.0 0.00 0.00 0.00 76 1010.4
20260506121027 66 168 4.0 10.0 0.00 0.00 0.00 75 1010.4
20260506120505 66 173 5.0 14.0 0.00 0.00 0.00 75 1010.3
20260506120005 66 177 6.0 14.0 0.00 0.00 0.00 75 1010.2
20260506115505 66 170 5.0 11.0 0.00 0.00 0.00 75 1010.2
20260506115026 66 163 4.0 12.0 0.00 0.00 0.00 75 1010.1
20260506114526 66 177 4.0 12.0 0.00 0.00 0.00 75 1010.1
20260506114026 66 169 5.0 13.0 0.00 0.00 0.00 75 1010.1
20260506113526 66 159 5.0 13.0 0.00 0.00 0.00 75 1010.0
20260506113005 66 168 5.0 14.0 0.00 0.00 0.00 75 1009.8
20260506112505 66 172 5.0 15.0 0.00 0.00 0.00 76 1009.9
20260506112026 66 172 4.0 15.0 0.00 0.00 0.00 76 1009.9
20260506111526 66 163 3.0 14.0 0.00 0.00 0.00 77 1009.7
20260506111026 65 159 4.0 16.0 0.00 0.00 0.00 77 1009.7
20260506110507 65 166 4.0 16.0 0.00 0.00 0.00 77 1009.7
20260506110027 65 172 3.0 13.0 0.00 0.00 0.00 77 1009.6
20260506105505 65 167 3.0 13.0 0.00 0.00 0.00 77 1009.7
20260506105026 65 168 4.0 14.0 0.00 0.00 0.00 77 1009.6
20260506104526 65 168 4.0 14.0 0.00 0.00 0.00 77 1009.6
20260506104005 65 173 4.0 13.0 0.00 0.00 0.00 77 1009.6
20260506103526 65 176 4.0 13.0 0.00 0.00 0.00 77 1009.6
20260506103028 65 165 4.0 13.0 0.00 0.00 0.00 77 1009.5
20260506102526 65 164 4.0 10.0 0.00 0.00 0.00 77 1009.6
20260506102006 65 173 3.0 11.0 0.00 0.00 0.00 77 1009.7
20260506101505 65 158 3.0 11.0 0.00 0.00 0.00 77 1009.5
20260506101006 65 154 3.0 12.0 0.00 0.00 0.00 77 1009.6
20260506100505 65 165 4.0 12.0 0.00 0.00 0.00 77 1009.5
20260506100026 65 177 5.0 12.0 0.00 0.00 0.00 76 1009.5
20260506095505 65 184 5.0 13.0 0.00 0.00 0.00 76 1009.6
20260506095026 65 173 4.0 13.0 0.00 0.00 0.00 76 1009.7
20260506094526 65 164 3.0 12.0 0.00 0.00 0.00 76 1009.6
20260506094006 65 173 3.0 9.0 0.00 0.00 0.00 76 1009.6
20260506093526 65 171 3.0 9.0 0.00 0.00 0.00 76 1009.6
20260506093005 66 169 4.0 13.0 0.00 0.00 0.00 75 1009.6
20260506092505 66 165 4.0 13.0 0.00 0.00 0.00 75 1009.7
20260506092005 66 166 4.0 14.0 0.00 0.00 0.00 75 1009.7
20260506091505 66 168 4.0 14.0 0.00 0.00 0.00 75 1009.8
20260506091007 66 159 3.0 10.0 0.00 0.00 0.00 74 1009.6
20260506090505 66 161 4.0 16.0 0.00 0.00 0.00 74 1009.7
20260506090005 66 167 5.0 16.0 0.00 0.00 0.00 74 1009.8
20260506085505 66 169 5.0 12.0 0.00 0.00 0.00 74 1009.7
20260506085005 66 167 4.0 12.0 0.00 0.00 0.00 74 1009.7
20260506084526 66 158 3.0 11.0 0.00 0.00 0.00 73 1009.7
20260506084005 67 153 3.0 9.0 0.00 0.00 0.00 73 1009.7
20260506083526 67 166 3.0 11.0 0.00 0.00 0.00 73 1009.7
20260506083026 67 163 3.0 11.0 0.00 0.00 0.00 73 1009.7
20260506082526 67 163 4.0 9.0 0.00 0.00 0.00 72 1009.8
20260506082026 67 159 4.0 13.0 0.00 0.00 0.00 72 1009.7
20260506081505 67 156 4.0 13.0 0.00 0.00 0.00 72 1009.6
20260506081005 67 158 3.0 12.0 0.00 0.00 0.00 72 1009.6
20260506080505 68 165 3.0 9.0 0.00 0.00 0.00 72 1009.6
20260506073505 68 161 4.0 18.0 0.00 0.00 0.00 69 1009.8
20260506073026 69 169 4.0 13.0 0.00 0.00 0.00 69 1009.8
20260506072526 69 166 5.0 13.0 0.00 0.00 0.00 68 1009.9
20260506072005 69 159 5.0 13.0 0.00 0.00 0.00 68 1009.9
20260506071526 69 162 4.0 14.0 0.00 0.00 0.00 68 1009.9
20260506071026 69 158 5.0 14.0 0.00 0.00 0.00 67 1009.9
20260506070526 70 161 5.0 14.0 0.00 0.00 0.00 66 1009.9
20260506062505 70 172 3.0 10.0 0.00 0.00 0.00 63 1010.1
20260506062026 71 168 4.0 12.0 0.00 0.00 0.00 63 1010.0
20260506061505 71 168 4.0 12.0 0.00 0.00 0.00 63 1010.0
20260506061026 71 179 3.0 13.0 0.00 0.00 0.00 62 1010.0
20260506060526 71 181 4.0 13.0 0.00 0.00 0.00 62 1010.0
20260506051026 72 172 5.0 22.0 0.00 0.00 0.00 57 1010.4
20260506050505 72 166 5.0 22.0 0.00 0.00 0.00 56 1010.5
20260506045005 73 168 5.0 16.0 0.00 0.00 0.00 54 1010.5
20260506044505 73 170 5.0 16.0 0.00 0.00 0.00 54 1010.5
20260506044005 73 173 5.0 20.0 0.00 0.00 0.00 54 1010.5
20260506043026 73 163 5.0 16.0 0.00 0.00 0.00 53 1010.4
20260506042526 73 171 5.0 13.0 0.00 0.00 0.00 53 1010.4
20260506042027 73 177 5.0 13.0 0.00 0.00 0.00 53 1010.4
20260506041526 73 174 5.0 18.0 0.00 0.00 0.00 53 1010.5
20260506041027 73 177 5.0 19.0 0.00 0.00 0.00 53 1010.5
20260506040526 73 178 5.0 19.0 0.00 0.00 0.00 53 1010.4
20260506040027 73 177 5.0 16.0 0.00 0.00 0.00 53 1010.4
20260506035505 73 171 5.0 16.0 0.00 0.00 0.00 52 1010.5
20260506035005 73 164 5.0 14.0 0.00 0.00 0.00 52 1010.5
20260506034505 73 162 5.0 17.0 0.00 0.00 0.00 52 1010.4
20260506034006 73 170 6.0 17.0 0.00 0.00 0.00 52 1010.4
20260506033505 73 177 5.0 14.0 0.00 0.00 0.00 52 1010.4
20260506033005 73 171 3.0 11.0 0.00 0.00 0.00 51 1010.3
20260506032528 73 166 3.0 11.0 0.00 0.00 0.00 51 1010.3
20260506032026 73 163 3.0 8.0 0.00 0.00 0.00 51 1010.3
20260506031526 73 159 4.0 17.0 0.00 0.00 0.00 50 1010.3
20260506031026 73 166 4.0 17.0 0.00 0.00 0.00 50 1010.3
20260506030505 74 172 3.0 12.0 0.00 0.00 0.00 50 1010.3
20260506030005 74 166 3.0 20.0 0.00 0.00 0.00 49 1010.3
20260506025527 74 156 4.0 20.0 0.00 0.00 0.00 48 1010.4
20260506025005 74 146 4.0 11.0 0.00 0.00 0.00 48 1010.4
20260506024526 74 156 3.0 11.0 0.00 0.00 0.00 48 1010.4
20260506024027 74 161 3.0 12.0 0.00 0.00 0.00 47 1010.5
20260506023505 74 163 4.0 12.0 0.00 0.00 0.00 47 1010.6
20260506023027 74 155 4.0 11.0 0.00 0.00 0.00 46 1010.5
20260506022505 74 144 4.0 10.0 0.00 0.00 0.00 46 1010.5
20260506022027 74 162 4.0 10.0 0.00 0.00 0.00 45 1010.5
20260506021505 74 165 3.0 10.0 0.00 0.00 0.00 45 1010.5
20260506021005 74 159 3.0 9.0 0.00 0.00 0.00 44 1010.5
20260506020526 74 160 3.0 9.0 0.00 0.00 0.00 43 1010.5
20260506020027 75 159 3.0 9.0 0.00 0.00 0.00 42 1010.5
20260506015526 75 160 2.0 6.0 0.00 0.00 0.00 42 1010.4
20260506015026 75 167 3.0 8.0 0.00 0.00 0.00 41 1010.3
20260506014505 76 167 3.0 8.0 0.00 0.00 0.00 40 1010.3
20260506014005 76 171 4.0 11.0 0.00 0.00 0.00 40 1010.3
20260506013505 76 167 5.0 11.0 0.00 0.00 0.00 39 1010.2
20260506013007 76 160 3.0 10.0 0.00 0.00 0.00 39 1010.2
20260506012505 76 162 3.0 11.0 0.00 0.00 0.00 39 1010.1
20260506012006 76 172 4.0 12.0 0.00 0.00 0.00 39 1010.2
20260506011505 76 171 3.0 12.0 0.00 0.00 0.00 39 1010.0
20260506011005 76 167 3.0 10.0 0.00 0.00 0.00 40 1009.9
20260506010526 77 170 3.0 10.0 0.00 0.00 0.00 38 1009.9
20260506010005 77 169 3.0 11.0 0.00 0.00 0.00 38 1009.8
20260506005526 77 173 5.0 14.0 0.00 0.00 0.00 37 1009.8
20260506005026 77 178 5.0 14.0 0.00 0.00 0.00 37 1009.7
20260506004526 77 180 4.0 13.0 0.00 0.00 0.00 37 1009.7
20260506004026 77 164 3.0 9.0 0.00 0.00 0.00 38 1009.6
20260506003505 77 157 3.0 8.0 0.00 0.00 0.00 37 1009.4
20260506003005 77 161 2.0 7.0 0.00 0.00 0.00 37 1009.5
20260506002526 78 164 2.0 8.0 0.00 0.00 0.00 37 1009.4
20260506002005 78 164 2.0 11.0 0.00 0.00 0.00 36 1009.4
20260506001526 78 161 3.0 11.0 0.00 0.00 0.00 35 1009.2
20260506001005 79 164 3.0 9.0 0.00 0.00 0.00 34 1009.3
20260506000526 79 170 3.0 9.0 0.00 0.00 0.00 34 1009.3
20260506000027 79 173 3.0 12.0 0.00 0.00 0.00 34 1009.2
20260505235526 80 177 4.0 14.0 0.00 0.00 0.00 33 1009.2
20260505235006 80 178 4.0 14.0 0.00 0.00 0.00 33 1009.2
20260505234505 80 175 3.0 13.0 0.00 0.00 0.00 32 1009.1
20260505234005 80 174 3.0 9.0 0.00 0.00 0.00 32 1009.1
20260505233526 80 164 3.0 10.0 0.00 0.00 0.00 32 1009.0
20260505233026 80 169 5.0 12.0 0.00 0.00 0.00 31 1009.0
20260505232526 81 171 5.0 12.0 0.00 0.00 0.00 31 1009.0
20260505232005 81 169 5.0 12.0 0.00 0.00 0.00 31 1009.1
20260505231526 81 178 5.0 12.0 0.00 0.00 0.00 30 1009.0
20260505231005 81 174 4.0 12.0 0.00 0.00 0.00 31 1009.1
20260505230506 81 175 5.0 16.0 0.00 0.00 0.00 30 1009.1
20260505230027 82 176 5.0 16.0 0.00 0.00 0.00 30 1009.1
20260505225505 82 170 4.0 15.0 0.00 0.00 0.00 30 1009.1
20260505225006 82 169 5.0 17.0 0.00 0.00 0.00 30 1009.1
20260505224526 82 182 5.0 17.0 0.00 0.00 0.00 30 1009.0
20260505224026 82 191 4.0 17.0 0.00 0.00 0.00 30 1009.0
20260505223505 82 179 4.0 17.0 0.00 0.00 0.00 30 1009.1
20260505223005 82 175 4.0 10.0 0.00 0.00 0.00 30 1009.1
20260505222526 82 171 4.0 16.0 0.00 0.00 0.00 30 1009.1
20260505222026 82 175 5.0 16.0 0.00 0.00 0.00 29 1009.1
20260505221505 82 177 6.0 18.0 0.00 0.00 0.00 29 1009.1
20260505221005 82 178 6.0 20.0 0.00 0.00 0.00 29 1009.1
20260505220506 83 176 6.0 20.0 0.00 0.00 0.00 29 1009.1
20260505220006 83 178 6.0 15.0 0.00 0.00 0.00 28 1009.2
20260505215526 84 190 6.0 18.0 0.00 0.00 0.00 29 1009.0
20260505215005 84 188 6.0 19.0 0.00 0.00 0.00 29 1009.0
20260505214505 84 182 6.0 19.0 0.00 0.00 0.00 29 1009.0
20260505214005 84 183 6.0 18.0 0.00 0.00 0.00 29 1008.9
20260505213505 84 183 6.0 18.0 0.00 0.00 0.00 29 1008.9
20260505213026 84 194 6.0 21.0 0.00 0.00 0.00 29 1008.9
20260505212505 84 190 7.0 21.0 0.00 0.00 0.00 28 1008.8
20260505212005 84 175 7.0 18.0 0.00 0.00 0.00 29 1008.8
20260505211526 84 169 7.0 18.0 0.00 0.00 0.00 28 1008.8
20260505211005 84 169 8.0 20.0 0.00 0.00 0.00 28 1008.8
20260505210526 84 175 9.0 21.0 0.00 0.00 0.00 28 1008.6
20260505210026 85 180 8.0 21.0 0.00 0.00 0.00 28 1008.7
20260505205527 85 181 7.0 18.0 0.00 0.00 0.00 29 1008.6
20260505205005 85 179 6.0 17.0 0.00 0.00 0.00 28 1008.7
20260505204526 85 173 7.0 18.0 0.00 0.00 0.00 29 1008.7
20260505204026 85 165 8.0 18.0 0.00 0.00 0.00 28 1008.8
20260505203505 85 169 8.0 18.0 0.00 0.00 0.00 28 1008.7
20260505203026 85 173 7.0 18.0 0.00 0.00 0.00 28 1008.8
20260505202526 85 177 7.0 18.0 0.00 0.00 0.00 29 1008.7
20260505202027 85 187 7.0 21.0 0.00 0.00 0.00 29 1008.7
20260505201526 85 182 9.0 26.0 0.00 0.00 0.00 29 1008.7
20260505201026 84 181 10.0 26.0 0.00 0.00 0.00 28 1008.9
20260505200505 85 181 8.0 23.0 0.00 0.00 0.00 29 1009.1
20260505200005 85 176 6.0 22.0 0.00 0.00 0.00 29 1009.0
20260505195505 85 170 5.0 22.0 0.00 0.00 0.00 29 1009.1
20260505195027 85 175 7.0 16.0 0.00 0.00 0.00 29 1009.1
20260505194505 85 170 7.0 16.0 0.00 0.00 0.00 29 1009.1
20260505194005 85 172 7.0 24.0 0.00 0.00 0.00 29 1009.1
20260505193528 85 172 9.0 24.0 0.00 0.00 0.00 30 1009.3
20260505193026 84 162 8.0 22.0 0.00 0.00 0.00 30 1009.2
20260505192506 85 164 8.0 29.0 0.00 0.00 0.00 29 1009.4
20260505192027 85 170 8.0 29.0 0.00 0.00 0.00 29 1009.5
20260505191526 85 182 7.0 26.0 0.00 0.00 0.00 29 1009.6
20260505191005 84 185 8.0 26.0 0.00 0.00 0.00 31 1009.5
20260505190505 84 184 9.0 21.0 0.00 0.00 0.00 30 1009.7
20260505190026 84 174 8.0 21.0 0.00 0.00 0.00 30 1009.9
20260505185505 85 172 7.0 20.0 0.00 0.00 0.00 30 1010.0
20260505185005 84 186 8.0 22.0 0.00 0.00 0.00 31 1010.0
20260505184527 84 189 8.0 22.0 0.00 0.00 0.00 31 1010.2
20260505184006 85 189 7.0 20.0 0.00 0.00 0.00 32 1010.0
20260505183505 85 174 7.0 20.0 0.00 0.00 0.00 31 1010.2
20260505183027 85 171 7.0 20.0 0.00 0.00 0.00 31 1010.2
20260505182526 85 177 7.0 20.0 0.00 0.00 0.00 31 1010.2
20260505182005 85 185 7.0 18.0 0.00 0.00 0.00 32 1010.3
20260505181526 85 192 8.0 18.0 0.00 0.00 0.00 32 1010.4
20260505181005 85 190 7.0 20.0 0.00 0.00 0.00 29 1010.4
20260505180526 85 191 5.0 20.0 0.00 0.00 0.00 30 1010.3
20260505180006 85 182 6.0 17.0 0.00 0.00 0.00 33 1010.4
20260505175526 84 178 6.0 19.0 0.00 0.00 0.00 31 1010.6
20260505175026 85 168 5.0 19.0 0.00 0.00 0.00 31 1010.5
20260505174505 84 177 5.0 15.0 0.00 0.00 0.00 31 1010.6
20260505174005 84 179 5.0 18.0 0.00 0.00 0.00 31 1010.7
20260505173507 84 156 5.0 18.0 0.00 0.00 0.00 33 1010.7
20260505173026 84 155 6.0 16.0 0.00 0.00 0.00 34 1010.7
20260505172526 83 182 7.0 19.0 0.00 0.00 0.00 34 1010.8
20260505172027 83 185 7.0 19.0 0.00 0.00 0.00 35 1010.9
20260505171505 83 173 6.0 15.0 0.00 0.00 0.00 36 1010.9
20260505171005 83 169 5.0 22.0 0.00 0.00 0.00 36 1010.9
20260505170526 83 157 6.0 22.0 0.00 0.00 0.00 37 1010.9
20260505170005 83 146 5.0 14.0 0.00 0.00 0.00 37 1011.0
20260505165528 84 149 4.0 14.0 0.00 0.00 0.00 38 1011.1
20260505165005 83 173 4.0 11.0 0.00 0.00 0.00 38 1011.1
20260505164526 83 168 3.0 11.0 0.00 0.00 0.00 37 1011.2
20260505164005 82 171 4.0 13.0 0.00 0.00 0.00 37 1011.3
20260505163527 82 181 6.0 13.0 0.00 0.00 0.00 37 1011.3
20260505163006 83 163 6.0 15.0 0.00 0.00 0.00 37 1011.5
20260505162528 84 163 4.0 15.0 0.00 0.00 0.00 37 1011.5
20260505162026 84 177 3.0 9.0 0.00 0.00 0.00 38 1011.6
20260505161505 83 174 3.0 11.0 0.00 0.00 0.00 40 1011.5
20260505161005 83 175 4.0 11.0 0.00 0.00 0.00 40 1011.6
20260505160505 83 172 3.0 9.0 0.00 0.00 0.00 41 1011.6
20260505153005 80 174 4.0 11.0 0.00 0.00 0.00 42 1011.8
20260505152505 80 182 4.0 13.0 0.00 0.00 0.00 43 1011.8
20260505152026 79 182 5.0 13.0 0.00 0.00 0.00 43 1011.8
20260505151526 79 180 4.0 12.0 0.00 0.00 0.00 42 1011.9
20260505151026 79 160 3.0 10.0 0.00 0.00 0.00 44 1011.9
20260505150505 78 165 4.0 10.0 0.00 0.00 0.00 44 1011.8